Regional Weather Roundup
Issued by NWS Kansas City/Pleasant Hill, MO

Home | Current Version | Previous Version | Text Only | Print | Product List | Glossary On
Versions: 1 2 3 4 5 6 7 8 9 10 11 12 13 14 15 16 17 18 19 20 21 22 23 24 25 26 27 28 29 30 31 32 33 34 35 36 37 38 39 40 41 42 43 44 45 46 47 48 49 50
000
ASUS43 KEAX 190411
RWREAX

WEATHER ROUNDUP FOR EASTERN KANSAS AND NORTHWEST MISSOURI
NATIONAL WEATHER SERVICE KANSAS CITY/PLEASANT HILL MO
1100 PM CDT THU SEP 18 2014

KSZ040-057-103>105-MOZ028-029-037-043-190500-
...KANSAS CITY METROPOLITAN AREA...

CITY           SKY/WX    TMP DP  RH WIND       PRES   REMARKS
K.C. INTL      CLEAR     62  60  93 SE9       30.02S
K.C. DOWNTOWN  CLEAR     64  61  90 E5        30.01S
LEES SUMMIT    CLEAR     62  61  96 E6        30.03S
OLATHE - IXD   CLEAR     62  61  96 SE5       30.02S
OLATHE - OJC   CLEAR     62  61  96 SE5       30.02R
LAWRENCE       FOG       58  57  97 CALM      30.02S VSB 1/4

$$

MOZ001>008-011>017-020>025-030>033-038>040-044>046-053-054-190500-
...NORTHERN AND CENTRAL MISSOURI...

CITY           SKY/WX    TMP DP  RH WIND       PRES   REMARKS
ST. JOSEPH     CLEAR     59  58  96 SE6       30.02S
MOSBY          CLEAR     61  61 100 CALM      30.03S FOG
WHITEMAN AFB   PTCLDY    61  60  97 E3        30.04R
CLINTON        NOT AVBL
SEDALIA        FOG       61  59  93 CALM      30.06R VSB 1/4
WARSAW         NOT AVBL
CHILLICOTHE      N/A     61  57  87 SE3       30.06S
MOBERLY        PTCLDY    59  55  88 SE5       30.07S
KIRKSVILLE     CLEAR     57  53  86 E5        30.07S

$$

MOZ041-047>049-056>058-063>065-088>090-097-190500-
...EASTERN AND SOUTHERN MISSOURI...

CITY           SKY/WX    TMP DP  RH WIND       PRES   REMARKS
ST. LOUIS INTL PTCLDY    62  54  74 E6        30.08R
SPIRIT OF STL  CLEAR     56  55  97 CALM      30.06S
COLUMBIA       CLOUDY    61  58  90 CALM        N/A
JEFFERSON CITY PTCLDY    63  59  87 E3        30.06R
MEXICO         CLEAR    N/A N/A N/A CALM      30.07S
HANNIBAL       CLEAR     59  55  88 E3        30.08S
ROLLA          CLOUDY    62  60  93 E3        30.05F FOG
LEBANON        FOG       59  57  94 SE3       30.07R VSB 1/4
OSAGE BEACH    CLEAR     61  57  88 CALM      30.05S
SPRINGFIELD    PTCLDY    64  60  87 SE9       30.04S
BRANSON        CLOUDY    64  63  94 CALM      30.06S FOG
JOPLIN         CLEAR     65  63  93 E8        30.01S
WEST PLAINS    CLEAR     59  57  93 NE3       30.07S FOG

$$

IAZ060-094-KSZ022-034>040-054-083-096-NEZ052-066-093-190500-
...KANSAS...SOUTHEAST NEBRASKA AND IOWA...

CITY           SKY/WX    TMP DP  RH WIND       PRES   REMARKS
TOPEKA         CLEAR     62  61  96 E5        30.01S FOG
MANHATTAN      PTCLDY    67  62  84 E8        29.98S
EMPORIA        PTCLDY    64  63  96 SE8       30.00S
CHANUTE        CLEAR     66  64  93 E3        30.00S
WICHITA        CLEAR     69  63  81 SE9       29.97F
OMAHA          PTCLDY    63  57  81 SE15      29.98S
LINCOLN        CLOUDY    64  59  83 S14       29.98R
FALLS CITY     CLEAR     59  58  96 SE3       30.00S
LAMONI         CLEAR     60  56  86 SE6       30.05R
DES MOINES     CLEAR     63  56  78 SE9       30.04F

$$



USA.gov is the U.S. government's official web portal to all federal, state and local government web resources and services.